Location: Altleiningen
(49.5078°N, 8.0741°E)
Time: 09:35:38
(UTC+00:00)

SPOT 3 Rocket - Pass Details

Date: 03 March 2021
Orbit: 778 x 795 km, 98.7° (Epoch: 13 April)

Event Time Altitude Azimuth Distance (km) Brightness Sun altitude
Exits shadow 20:18:41 63° 273° (W) 884 3.9 -29.9°
Drops below altitude 10° 20:23:40 10° 340° (NNW) 2,375 6.6 -30.6°
Sets 20:26:02 0° 343° (NNW) 3,310 7.4 -31.0°
